Location: ?????
(54.9266°N, 38.5527°E)
Time: 18:13:28
(UTC+00:00)

CZ-2D R/B - Pass Details

Date: 14 April 2024
Orbit: 791 x 842 km, 98.8° (Epoch: 27 May)

Event Time Altitude Azimuth Distance (km) Brightness Sun altitude
Rises 00:53:37 0° 12° (NNE) 3,338 6.1 -12.4°
Reaches altitude 10° 00:56:07 10° 4° (N) 2,411 5.2 -12.1°
Maximum altitude 01:00:50 33° 301° (WNW) 1,343 3.1 -11.5°
Enters shadow 01:04:43 14° 244° (WSW) 2,130 3.6 -11.1°
